Home > Weather > San Salvador > Past weeks

Flag for El Salvador Past Weather in San Salvador, El Salvador — Yesterday and Last 2 Weeks

Now
84 °F

Sunny.


Feels Like: 94 °F
Forecast: 67 / 85 °F
Wind: 5 mph from East

Location: El Salvador Intl. Airport / Comalapa

Current Time: Jul 26, 2016 at 10:11:42 AM

Latest Report: Jul 26, 2016 at 8:50 AM


Visibility: 10 mi

Pressure: 29.86 "Hg (27.69 "Hg at 667m altitude)

Humidity: 79%

Dew Point: 77 °F

Location of San SalvadorLocation

Past Weather in San Salvador — Graph

°F

San Salvador Temperature Yesterday

Maximum temperature yesterday: 91 °F (at 11:50 AM)
Minimum temperature yesterday: 73 °F (at 4:50 AM)
Average temperature yesterday: 83 °F

High & Low Weather Summary for the Past Weeks

 TemperatureHumidityPressure
High95 °F (Jul 11, 11:50 AM)100% (Jul 11, 11:50 PM)30.04 "Hg (Jul 11, 11:50 PM)
Low72 °F (Jul 12, 6:50 PM)47% (Jul 11, 11:50 AM)29.77 "Hg (Jul 11, 3:50 PM)
Average82 °F80%29.88 "Hg
* Reported Jul 11 8:50 AM — Jul 26 8:50 AM, San Salvador, Weather by CustomWeather, © 2016

Note: Actual official high and low records may vary slightly from our data, if they occured in-between our weather recording intervals... More about our weather records

Advertising

San Salvador Weather History for the Previous 24 Hours

Scroll right to see more
 ConditionsComfort  
Time TempWeatherWind HumidityBarometerVisibility
8:50 AM
Tue, Jul 26
84 °FSunny.5 mph79%29.86 "Hg10 mi
7:50 AM81 °FPassing clouds.9 mph89%29.86 "HgN/A
6:50 AM79 °FPassing clouds.3 mph89%29.83 "HgN/A
5:50 AM75 °FPassing clouds.6 mph100%29.83 "HgN/A
4:50 AM75 °FPassing clouds.2 mph100%29.83 "HgN/A
3:50 AM75 °FMild.5 mph100%29.83 "Hg0 mi
2:50 AM77 °FWarm.17 mph89%29.83 "Hg0 mi
11:50 PM
Mon, Jul 25
77 °FPassing clouds.3 mph94%29.86 "HgN/A
10:50 PM79 °FPassing clouds.7 mph89%29.86 "HgN/A
9:50 PM79 °FClear.3 mph89%29.86 "Hg10 mi
8:50 PM81 °FPassing clouds.5 mph89%29.83 "HgN/A
7:50 PM82 °FPassing clouds.6 mph79%29.83 "HgN/A
6:50 PM82 °FClear.1 mph79%29.80 "Hg10 mi
5:50 PM88 °FPassing clouds.3 mph62%29.77 "HgN/A
4:50 PM90 °FPassing clouds.3 mph55%29.77 "HgN/A
3:50 PM90 °FPassing clouds.5 mph59%29.77 "HgN/A
2:50 PM90 °FPassing clouds.6 mph63%29.77 "HgN/A
1:50 PM90 °FPassing clouds.7 mph63%29.80 "HgN/A
12:50 PM91 °FPassing clouds.6 mph52%29.83 "HgN/A
11:50 AM91 °FPassing clouds.3 mph56%29.83 "HgN/A
10:50 AM90 °FPassing clouds.5 mph59%29.86 "HgN/A
Weather by CustomWeather, © 2016

See weather overviewHow to use our weather pages